Preview of NWS' New Version of Forecast
This preview is not operational and should not be used for support decisions.

Regional Weather Roundup (RWR)

Issued by National Weather Service (NWS)

                            
000
ASUS46 KSEW 211410
RWRWA 

WASHINGTON REGIONAL WEATHER ROUNDUP
NATIONAL WEATHER SERVICE SEATTLE WA
700 AM PDT SUN JUL 21 2019

NOTE:"FAIR" INDICATES FEW OR NO CLOUDS BELOW 12,000 FEET WITH NO 
SIGNIFICANT WEATHER AND/OR OBSTRUCTIONS TO VISIBILITY.

WAZ507-509-555>559-211500-
SEATTLE, TACOMA, EVERETT, AND VICINITY
  
CITY           SKY/WX    TMP DP  RH WIND       PRES   REMARKS
EVERETT        SUNNY     60  52  74 N5        30.01R                  
BOEING FIELD   SUNNY     61  51  70 CALM      30.00R                  
RENTON         SUNNY     57  52  83 S3        29.99S                  
SEATAC AIRPORT SUNNY     63  51  65 NE3       30.00R                  
JBLM-MCCHORD   SUNNY     53  53 100 S3        30.00S                  
PUYALLUP       FAIR      52  52 100 CALM      30.00S                  
BREMERTON      SUNNY     55  51  86 CALM      30.01R                  
JBLM-FT LEWIS  SUNNY     53  52  94 CALM      29.99S                  
TACOMA NARROWS SUNNY     59  50  72 CALM      30.01R                  
$$
 
WAZ001-503-506-510-514-515-211500-
NORTH INTERIOR
  
CITY           SKY/WX    TMP DP  RH WIND       PRES   REMARKS
BELLINGHAM     SUNNY     58  54  86 CALM      30.00R                  
FRIDAY HARBOR  SUNNY     55  50  83 CALM      30.01R                  
EASTSOUND      SUNNY     59  54  82 CALM      29.99S                  
PORT ANGELES   SUNNY     54  52  93 CALM      30.01R                  
EDIZ HOOK      FAIR      55  49  81 CALM      30.01R                  
PORT TOWNSEND  FAIR      52  50  93 CALM      30.00R                  
NAS WHIDBEY    MOSUNNY   57  52  83 CALM      30.04R                  
ARLINGTON        N/A     54  52  93 CALM      30.01R                  
BURLINGTON     SUNNY     59  57  94 CALM      30.00S                  
$$
 
WAZ020-022-039-040-504-511-512-211500-
SOUTHWEST INTERIOR
  
CITY           SKY/WX    TMP DP  RH WIND       PRES   REMARKS
SHELTON        SUNNY     51  47  86 CALM      29.98R                  
OLYMPIA        MOSUNNY   53  50  89 CALM      30.00R                  
CHEHALIS       FAIR      54  52  94 SW3       30.00S                  
KELSO          PTSUNNY   53  51  93 CALM      30.01R                  
VANCOUVER      SUNNY     59  53  80 MISG      29.98R                  
SCAPPOOSE, OR  SUNNY     56  51  84 CALM      29.98R                  
PORTLAND, OR   SUNNY     63  53  70 CALM      29.98S                  
$$
 
WAZ021-516-517-211500-
WASHINGTON COAST
  
CITY           SKY/WX    TMP DP  RH WIND       PRES   REMARKS
FORKS          SUNNY     51  48  89 CALM      30.01R                  
HOQUIAM        SUNNY     53  53 100 E5        30.00S                  
ASTORIA, OR    CLOUDY    57  55  93 CALM      30.00R                  
$$
 
WAZ019-023-024-040-567>569-211500-
CASCADE MOUNTAINS AND COLUMBIA GORGE
  
CITY           SKY/WX    TMP DP  RH WIND       PRES   REMARKS
STAMPEDE PASS  SUNNY     56  40  55 VRB3      30.14R                  
TROUTDALE, OR  SUNNY     57  48  72 E5        29.98R                  
HOOD RIVER, OR SUNNY     54  41  62 S6        30.02S                  
THE DALLES, OR SUNNY     56  41  57 CALM      30.01R                  
$$

WAZ026-027-041>044-520-521-211500-
EAST SLOPES
  
CITY           SKY/WX    TMP DP  RH WIND       PRES   REMARKS
OMAK           SUNNY     61  44  53 N9        30.11S                  
WENATCHEE      SUNNY     61  40  45 SW8       30.09R                  
ELLENSBURG     SUNNY     55  41  59 CALM      30.09R                  
YAKIMA         SUNNY     55  41  59 W8        30.06R                  
SUNNYSIDE ARPT SUNNY     53  49  85 CALM      30.03                   
YAKIMA TC      FAIR      57  33  41 CALM      30.05R                  
$$

WAZ028-034-035-211500-
COLUMBIA BASIN
  
CITY           SKY/WX    TMP DP  RH WIND       PRES   REMARKS
EPHRATA        SUNNY     68  43  40 N7        30.07R                  
MOSES LAKE     SUNNY     65  44  46 N9        30.06R                  
PASCO          SUNNY     59  47  64 NW3       30.02R                  
RICHLAND ARPT  SUNNY     62  44  51 CALM      30.03                   
HERMISTON, OR  SUNNY     56  41  57 CALM      30.00R                  
$$

WAZ036>038-211500-
NORTHEAST WASHINGTON
  
CITY           SKY/WX    TMP DP  RH WIND       PRES   REMARKS
SPOKANE GEIGER MOSUNNY   59  43  55 NE8       30.11S                  
SPOKANE FELTS  SUNNY     59  47  64 CALM      30.11S                  
FAIRCHILD AFB  SUNNY     58  44  60 NE9       30.11R                  
COEURDALENE,ID SUNNY     58  46  64 N15       30.13S                  
DEER PARK      SUNNY     59  44  57 NE12      30.13R                  
$$

WAZ029>033-211500-
SOUTHEAST WASHINGTON
  
CITY           SKY/WX    TMP DP  RH WIND       PRES   REMARKS
PULLMAN        SUNNY     56  41  57 CALM      30.09R                  
LEWISTON, ID   SUNNY     59  41  51 E6        30.06R                  
WALLA WALLA    SUNNY     62  40  44 S7        30.01R                  
PENDLETON, OR  SUNNY     59  37  44 E5        30.01R                  
$$